ANTARES R/B

基本信息
目录编号:
57489
目录名称:
ANTARES R/B
国际标识:
2023-110B
轨道中心:
EARTH
物体状态:
已陨落(2023-08-05)
发射日期:
2023-08-02 UTC
国别:
美国 (US)
轨道信息
数据来源: 国际轨道数据
星历时间: 2023-08-06T10:14:18+0800
半长轴: 6484.38km
偏心率: 0.0004775
轨道倾角: 51.596°
近地点辐角: 171.050°
升交点赤经: 81.353°
平近点角: 232.785°
近地点: 103.148km
远地点: 109.342km
周期: 86.609分钟
每日圈数: 16.626472
详细信息
发射场:
WLPIS
轨道高度:
LEO
数据来源:
AOE Integration Group
参考系:
TEME
时间系统:
UTC
历元类型:
SGP4
2D轨道图
3D轨道图
轨道高度分析图
轨道倾角分析图
轨道综合分析图
查看轨道综合分析图